CAPE
0 0 0 0 0 0 0 0 0 0 0 0 0 0 0 0 0 0 0 0 0 0 0 0 0 0 0 0 0 0 0 0 0 201 556 970 717 901 918 859 772 600 383 496
0 0 0 0 0 0 0 0 0 0 0 0 0 0 0 0 0 0 0 0 0 0 0 0 0 0 0 0 0 0 0 0 0 13 242 943 834 633 779 1041 883 690 391 337
0 0 0 0 0 0 0 0 0 0 0 0 0 0 0 0 0 0 0 0 0 0 0 3 0 0 0 0 0 0 0 0 4 0 321 602 1111 815 675 906 899 618 425 318
0 0 0 0 0 0 0 0 0 0 0 0 0 1 0 0 0 0 0 0 0 0 0 5 4 0 0 0 0 13 63 29 17 22 144 312 628 882 659 748 778 744 491 355
0 0 0 0 0 0 0 0 0 0 0 0 0 6 0 7 0 0 0 0 0 0 2 6 0 2 6 14 18 108 101 112 23 42 79 557 939 1259 1003 780 686 676 621 485
0 0 0 0 0 0 0 0 0 0 0 0 15 30 0 0 0 0 0 0 0 0 0 23 30 56 29 32 24 103 149 92 34 13 0 166 837 973 908 863 685 571 668 567
0 0 0 0 0 0 0 0 0 0 0 0 2 0 1 48 0 4 0 0 0 0 0 20 19 134 145 211 25 101 209 208 82 65 115 44 812 1372 665 893 524 494 542 407
0 0 0 0 0 0 0 0 21 1 0 0 0 0 18 19 3 0 4 0 0 0 0 1 35 0 47 136 205 261 207 203 311 170 296 479 678 1283 1386 1058 544 394 510 665
0 0 0 0 0 0 0 0 10 4 0 0 0 13 15 0 0 0 1 1 0 0 0 0 0 70 53 69 198 356 519 742 596 560 759 1169 1143 1536 1145 1249 988 652 603 661
0 0 0 0 0 0 0 4 21 1 0 0 0 0 16 0 3 0 8 1 0 0 0 0 0 0 0 0 79 49 473 416 891 1036 883 841 860 1082 1164 1082 1065 614 572 471
0 0 0 0 0 0 0 0 0 10 4 2 0 0 0 0 15 0 5 0 0 0 0 0 0 0 0 0 38 177 356 421 145 487 836 697 641 765 818 779 1081 1033 570 315
0 0 0 0 0 0 0 0 5 8 0 0 0 0 0 0 3 1 0 0 0 0 0 0 0 0 0 0 9 40 148 229 321 288 392 294 870 769 575 647 991 896 622 364
0 0 0 0 0 0 0 0 1 14 11 0 0 0 0 0 0 0 0 0 0 0 0 0 0 0 0 0 0 7 43 106 144 148 247 812 925 669 264 539 646 552 550 324
0 0 0 0 0 0 0 0 5 25 1 0 0 0 0 0 0 0 0 0 0 0 0 0 0 0 0 0 0 39 18 33 82 137 175 328 592 179 0 576 640 451 238 134
0 0 0 0 0 0 0 0 0 16 0 2 0 0 0 0 0 0 0 0 0 0 0 0 0 0 0 0 0 0 0 22 28 51 113 144 241 714 521 644 549 420 92 15
0 0 0 0 0 1 4 21 10 0 0 0 0 0 0 0 0 0 0 0 0 0 0 0 0 0 0 0 0 0 0 5 18 17 25 52 34 831 468 452 343 233 24 2
0 0 0 0 1 16 0 0 0 0 0 2 0 0 0 0 0 0 0 0 1 0 0 0 0 0 0 0 0 0 0 0 53 5 0 9 27 657 193 115 195 112 2 2
0 0 11 1 1 0 6 7 0 0 0 0 0 0 0 0 0 0 0 0 0 0 1 0 2 1 0 0 0 0 0 0 0 11 0 2 32 518 77 1 46 3 3 4
4 41 29 15 0 0 0 4 1 1 0 0 0 0 0 0 1 0 0 0 1 2 1 2 1 2 0 0 0 0 0 0 0 8 0 0 1 348 135 21 19 4 3 4
0 0 3 1 0 3 0 18 0 17 0 0 1 0 2 1 2 0 0 1 2 1 1 1 0 0 1 0 0 0 0 0 0 1 0 0 163 381 88 3 5 4 4 5
0 0 0 0 0 0 62 4 11 4 0 0 1 1 2 2 2 1 2 1 2 1 0 0 0 0 0 0 0 0 0 0 0 0 10 86 262 187 3 4 3 2 3 4
1 1 1 3 0 0 17 0 10 1 0 1 0 2 2 3 3 3 3 4 2 2 2 0 2 1 0 0 0 0 0 0 0 3 36 141 127 4 4 3 4 3 3 4
0 5 14 19 2 0 10 8 0 0 0 1 1 2 3 3 3 3 3 3 2 3 2 0 0 0 0 0 0 0 0 0 0 29 37 89 3 3 4 5 4 4 3 5
0 0 5 1 0 0 35 0 0 0 0 2 1 3 3 2 2 3 4 3 3 2 1 0 0 0 1 0 0 0 0 0 0 54 31 0 2 3 3 3 2 3 4 3
0 0 1 0 2 7 5 1 0 0 0 1 2 2 2 2 2 3 3 3 3 4 3 0 0 0 0 0 0 0 0 0 54 64 3 2 4 4 3 2 2 3 0 0
0 11 13 3 0 18 0 0 0 0 2 2 2 1 2 3 2 3 3 2 2 2 2 1 0 0 0 0 0 0 0 28 44 16 2 4 3 3 3 2 0 0 0 0
CIN
0 0 0 0 0 0 0 0 0 0 0 0 0 0 0 0 0 0 0 0 0 0 0 0 0 0 0 0 0 0 0 0 -1 -113 -47 -42 -31 -40 -26 -17 -96 -142 -158 -97
0 0 0 0 0 0 0 0 0 0 0 0 0 0 0 0 0 0 0 0 0 0 0 0 0 0 0 0 0 0 0 0 0 -142 -74 -37 -49 -52 -78 -25 -37 -100 -138 -146
0 0 0 0 0 0 0 0 0 0 0 0 0 0 0 0 0 0 0 0 -14 0 0 -36 0 0 0 0 0 0 0 0 -49 0 -55 -43 -28 -44 -56 -31 -23 -70 -166 -176
0 0 0 0 0 0 0 0 0 0 0 0 0 -1 0 0 0 0 0 0 0 0 -6 -47 -30 0 0 0 0 -37 -61 -51 -52 -56 -52 -30 -28 -22 -34 -47 -71 -30 -144 -140
0 0 0 0 0 0 0 0 0 0 0 0 0 -17 0 -56 0 0 0 0 0 0 -29 -28 -9 -69 -27 -27 -41 -43 -54 -54 -60 -55 -56 -39 -18 -20 -30 -52 -65 -23 -36 -60
0 0 0 0 0 0 0 0 0 0 0 -18 -54 -25 0 0 -25 0 0 0 0 0 0 -67 -86 -93 -120 -40 -45 -54 -54 -53 -58 -63 0 -47 -32 -28 -32 -23 -29 -33 -31 -16
0 0 0 0 0 0 0 0 0 0 0 0 -74 0 -27 -34 -25 -34 0 0 0 0 0 -185 -250 -110 -118 -105 -43 -56 -60 -53 -62 -61 -60 -63 -39 -13 -45 -32 -42 -43 -21 -36
0 0 0 0 0 0 0 0 -5 -3 0 0 0 0 -26 -57 -7 -1 -64 0 0 0 0 -102 -290 -35 -47 -99 -31 -71 -65 -54 -59 -69 -65 -69 -54 -20 -14 -26 -40 -41 -33 -37
0 0 0 0 0 0 0 0 -10 -21 0 0 0 -33 -84 0 -4 0 -40 -45 0 0 0 0 0 -180 -52 -24 -53 -76 -67 -90 -57 -62 -45 -29 -33 -18 -25 -28 -29 -31 -34 -25
0 0 0 0 0 0 0 -7 -4 -15 0 0 0 0 -10 0 -5 0 -63 -19 0 0 0 0 0 0 -21 0 -40 -84 -74 -70 -42 -14 -35 -29 -19 -19 -33 -31 -21 -37 -44 -64
0 0 0 0 0 0 0 -4 -33 -6 -8 -1 0 0 0 0 -36 -34 -41 0 0 0 0 0 0 0 0 0 -44 -65 -45 -61 -83 -19 -16 -7 -20 -18 -22 -24 -26 -19 -45 -58
0 0 0 0 0 0 0 -9 -23 -13 0 0 0 0 0 0 -53 -22 0 0 0 0 0 0 0 0 0 0 -42 -75 -98 -83 -90 -78 -37 -7 -8 -10 -14 -13 -21 -16 -28 -57
-7 0 -1 0 0 0 0 0 -37 -22 -13 0 0 0 0 0 0 0 0 0 0 0 0 0 0 0 0 0 0 -64 -117 -127 -121 -130 -109 -43 -32 -56 -67 -46 -24 -60 -59 -82
0 0 0 0 0 0 0 0 -42 -19 -4 0 0 0 0 0 0 0 0 0 0 0 0 0 0 0 0 0 0 -57 -100 -142 -128 -138 -127 -111 -58 -78 0 -62 -53 -100 -144 -206
0 -1 0 0 0 0 0 0 0 -3 0 -15 0 0 0 0 0 0 0 0 0 0 0 0 0 0 0 0 0 0 0 -117 -190 -177 -141 -101 -89 -81 -89 -58 -80 -103 -216 -129
0 0 0 0 0 -16 -1 -7 -20 0 0 0 0 0 0 0 0 0 0 0 0 0 0 0 0 0 0 0 0 0 0 -78 -188 -211 -204 -147 -133 -61 -53 -120 -143 -132 -264 0
0 0 0 0 -3 -4 0 -7 0 0 0 -26 0 0 0 0 0 0 0 0 0 0 0 0 0 0 0 0 0 0 0 0 -146 -262 0 -195 -136 -94 -192 -220 -252 -269 0 0
0 0 -7 -4 -3 0 -4 -82 0 0 0 0 0 0 0 0 0 0 0 0 0 0 0 0 0 0 0 0 0 0 0 0 -10 -261 0 -134 -116 -108 -207 0 -286 0 0 0
-8 -5 -20 -9 -2 0 0 -37 -12 0 0 0 0 0 0 0 0 0 0 0 0 0 0 0 0 0 0 0 0 0 0 0 0 -190 0 0 -30 -119 -176 -178 -313 0 0 0
0 0 -18 -5 -3 0 -30 -22 -22 -46 0 0 0 0 0 0 0 0 0 0 0 0 0 0 0 0 0 0 -3 0 0 0 0 -11 0 0 -92 -110 -240 0 0 0 0 0
0 0 0 0 -1 0 -19 -46 -71 -18 0 0 0 0 0 0 0 0 0 0 0 0 0 0 0 0 0 0 0 0 0 0 0 -1 -122 -95 -89 -163 0 0 0 0 0 0
-2 -1 -1 -5 -1 0 -66 0 -6 -1 0 0 0 0 0 0 0 0 0 0 0 0 0 0 -2 -3 0 0 0 0 0 0 0 -12 -43 -107 -127 0 0 0 0 0 0 0
-1 -9 -1 -1 -3 0 -17 -18 0 0 0 0 0 0 0 0 0 0 0 0 0 0 0 0 0 0 0 0 0 0 0 0 0 -14 -139 -107 -2 0 0 0 0 0 0 0
0 0 0 0 -4 -2 -7 0 0 0 0 0 0 0 0 0 0 0 0 0 0 0 0 0 0 0 0 0 0 0 0 0 -7 -10 -117 0 0 0 0 0 0 0 0 0
0 0 0 0 -2 -4 -4 0 0 0 0 0 0 0 0 0 0 0 0 0 0 0 0 0 0 0 0 -1 0 0 0 0 -20 -23 -21 0 0 0 0 0 0 0 0 0
0 -1 0 0 -3 -1 0 0 0 0 0 0 0 0 0 0 0 0 0 0 0 0 0 0 0 0 0 0 0 0 -12 -36 -19 -24 0 0 0 0 0 0 0 0 0 0
Wind_Speed
22 20 16 18 28 32 34 39 44 46 39 43 46 50 56 51 50 48 47 48 46 42 40 40 45 37 35 35 34 32 31 31 28 30 32 34 36 40 34 28 26 21 19 19
23 24 29 34 33 30 33 32 38 42 43 46 48 54 57 53 46 42 46 43 37 35 41 40 38 40 36 37 38 36 35 33 32 29 32 34 34 37 37 32 29 24 22 20
24 22 25 27 36 37 34 38 40 42 47 45 44 49 51 48 40 40 38 38 43 41 36 38 30 31 37 38 41 38 36 35 33 30 30 33 36 36 39 40 31 27 23 22
20 22 22 29 29 33 34 35 37 42 45 50 39 59 52 37 40 40 37 35 39 38 34 34 21 13 23 28 32 34 33 34 33 31 30 33 37 40 37 40 36 29 26 23
19 18 23 29 34 35 34 36 39 41 44 48 48 40 41 35 34 36 30 32 35 33 32 29 33 29 14 16 21 27 28 31 33 34 32 33 36 37 37 35 40 32 29 27
19 27 28 33 38 35 44 42 46 40 42 41 31 30 33 33 32 28 28 30 30 29 29 28 27 29 32 12 14 18 26 31 33 35 35 36 35 38 39 37 37 37 29 24
26 25 26 31 45 42 43 41 41 36 26 23 27 36 38 27 30 30 31 35 30 30 31 33 31 28 27 26 20 14 20 27 33 34 33 34 35 37 39 39 38 37 32 33
29 32 30 41 39 35 36 31 28 30 28 23 29 15 18 24 30 32 28 32 30 32 32 31 32 31 25 28 23 26 15 22 28 32 32 31 34 34 37 39 38 36 32 30
27 22 31 30 34 33 30 26 21 21 12 16 21 21 20 27 27 31 28 32 32 32 32 32 32 29 26 27 25 23 13 26 20 28 29 28 30 32 34 36 35 35 31 28
24 30 26 29 39 21 30 20 23 25 21 13 22 25 23 28 28 32 31 32 32 31 32 32 32 28 31 31 26 29 19 13 25 28 26 29 27 29 30 31 32 32 33 32
25 24 25 33 31 29 21 17 21 18 18 10 12 5 32 34 31 37 32 34 36 37 38 37 37 32 34 34 27 24 25 17 18 31 29 27 27 24 25 28 29 29 29 27
23 25 31 28 22 17 11 14 9 34 27 16 17 33 32 25 41 41 33 37 40 42 46 43 39 37 36 34 30 29 25 24 25 21 17 31 18 21 23 25 26 27 26 25
23 25 37 34 23 21 25 20 38 18 28 15 19 31 36 47 42 34 41 45 47 50 49 46 47 43 39 35 30 24 27 28 28 30 24 22 20 24 22 22 19 20 23 22
19 21 24 23 22 23 19 17 17 33 27 20 15 33 41 40 41 46 49 50 51 52 52 50 47 43 39 34 34 33 24 26 30 32 30 27 31 30 26 20 18 15 15 15
20 24 22 19 20 20 18 18 36 38 15 16 32 45 47 44 44 48 54 58 62 61 55 49 47 43 40 38 33 30 36 27 27 31 30 30 27 33 23 14 14 10 10 8
17 23 22 18 23 25 19 21 30 25 32 30 32 32 39 41 44 47 57 63 63 56 53 48 46 49 47 41 40 33 35 35 26 29 32 29 28 23 20 10 8 10 8 6
18 20 22 19 28 25 30 21 28 30 30 28 31 27 45 48 52 64 64 60 51 45 42 40 38 43 50 45 42 37 37 32 30 28 33 28 24 20 15 10 10 8 8 8
17 17 22 24 27 26 22 27 31 30 22 18 20 40 41 53 57 55 28 22 38 41 43 46 42 38 42 47 45 38 38 39 34 28 32 26 21 15 13 8 9 9 6 6
11 15 27 28 30 24 25 29 34 39 38 41 39 49 57 61 44 42 27 39 36 24 21 27 46 46 44 42 44 43 42 42 37 33 31 26 23 13 11 6 7 8 7 5
34 28 27 28 23 20 26 30 32 29 37 32 51 56 51 57 29 35 45 42 34 21 21 18 17 44 43 41 39 43 47 46 41 36 32 25 20 11 10 8 8 8 7 6
37 37 28 27 28 23 23 41 40 40 43 52 54 51 42 28 22 31 35 32 20 20 21 20 16 18 34 34 35 42 44 48 44 36 26 21 18 14 12 9 8 9 8 7
33 29 29 29 30 24 37 47 40 37 43 51 46 43 33 24 23 20 24 27 22 19 18 21 33 25 19 28 32 39 42 39 39 31 19 21 17 14 12 11 9 9 9 8
26 30 29 27 25 28 44 34 35 39 46 52 31 37 24 26 19 18 22 25 23 19 15 22 32 8 14 30 32 37 37 38 38 26 22 22 17 15 11 12 12 11 10 10
31 31 26 40 24 29 42 41 42 43 40 41 41 32 22 25 24 28 19 17 24 17 15 15 24 10 20 30 33 35 35 36 36 26 23 22 16 14 12 11 12 12 11 10
20 25 20 27 19 41 33 40 43 46 43 50 43 33 19 22 22 35 14 15 12 7 7 9 11 16 27 31 34 35 33 36 31 26 23 20 16 14 12 12 15 11 9 13
18 21 33 42 26 39 43 45 49 51 50 50 29 21 22 20 22 20 11 17 13 5 5 4 14 20 18 29 28 31 34 32 29 27 24 18 16 14 13 13 13 8 10 9
Wind_Direction
2 351 341 331 331 330 325 317 312 312 322 317 311 308 300 310 310 308 306 302 298 293 292 288 278 277 267 264 263 262 260 258 257 259 258 255 251 252 255 251 240 233 235 237
359 350 341 331 332 328 325 322 319 318 319 316 314 306 301 307 312 313 310 310 309 302 296 287 282 271 266 261 260 261 258 255 255 257 259 256 255 252 252 253 251 233 234 234
354 346 345 340 330 327 324 321 321 319 320 318 319 310 310 312 317 318 316 306 298 301 301 296 289 276 269 264 260 260 256 252 252 256 258 258 255 256 249 250 254 243 232 235
351 350 344 337 332 330 323 326 323 321 321 315 326 309 313 322 322 318 297 301 303 283 286 311 302 269 274 268 265 258 253 249 250 252 256 256 252 250 252 246 251 249 238 235
345 344 340 339 337 334 333 331 327 324 320 318 318 315 317 323 322 311 303 303 316 298 283 310 297 319 243 259 261 254 251 248 249 250 257 257 253 250 254 250 246 245 239 241
342 349 346 341 338 338 330 329 325 326 323 317 327 334 323 317 290 306 304 302 299 327 317 327 325 326 321 248 250 248 249 249 249 250 257 254 252 250 252 251 249 251 247 242
350 350 350 348 331 333 335 335 334 337 345 334 329 323 301 300 310 304 302 315 321 325 329 331 330 325 336 320 272 247 250 253 249 250 254 254 251 251 251 251 251 253 251 251
347 345 352 338 342 343 342 346 346 339 338 281 330 353 328 321 316 302 330 323 301 322 333 339 331 315 319 312 309 285 248 252 250 247 250 254 249 252 252 252 252 253 252 247
347 347 342 349 348 347 347 352 351 340 344 342 349 342 334 321 329 324 318 322 317 314 321 325 338 331 318 293 292 322 302 260 246 245 247 251 252 251 251 252 252 254 255 252
353 337 350 350 341 357 344 353 350 344 352 341 335 330 335 304 318 326 329 318 321 317 322 318 340 342 305 295 303 279 302 310 260 252 247 250 253 254 253 252 252 255 257 258
349 344 339 346 348 343 353 7 6 358 349 347 281 312 313 295 316 317 323 321 319 313 313 319 324 318 310 300 307 286 281 297 280 250 253 252 251 254 257 256 256 257 258 259
355 344 338 340 345 355 356 355 315 320 272 329 264 264 292 322 310 313 321 322 320 314 307 306 308 308 298 286 290 288 286 284 278 280 277 238 251 259 262 261 258 258 256 257
347 346 338 342 1 354 347 345 302 278 331 272 261 264 306 302 309 320 317 314 312 308 307 300 293 292 287 274 292 297 284 277 272 265 279 276 269 257 265 265 263 263 258 255
342 335 330 324 324 333 322 324 276 270 326 323 271 268 289 314 315 313 312 314 312 310 305 295 291 288 289 289 283 282 289 279 271 265 269 274 257 255 266 258 256 264 262 254
344 332 331 322 327 331 319 304 276 275 297 318 312 291 310 320 323 322 318 313 307 302 300 295 286 284 282 282 285 283 269 273 271 264 263 264 270 250 246 248 252 254 257 252
350 336 337 316 328 325 306 320 324 332 325 325 326 273 327 326 326 326 322 312 308 305 298 295 289 276 273 275 272 273 269 266 265 262 257 261 263 250 243 234 233 237 222 208
320 320 331 301 337 337 334 345 327 329 329 333 295 295 326 324 325 312 308 306 305 308 311 306 302 285 269 268 266 266 259 262 257 259 254 259 267 254 244 227 225 217 215 220
324 331 330 330 339 340 353 345 329 327 335 310 317 329 332 325 301 298 327 330 326 320 312 300 300 297 278 262 259 259 256 248 251 254 250 257 269 248 237 210 213 212 198 190
345 338 335 336 334 328 341 338 322 320 284 324 329 321 321 312 327 291 346 330 330 321 306 311 294 280 269 265 253 249 247 240 242 243 247 255 260 237 226 217 191 192 181 182
339 343 334 330 316 296 343 341 339 338 284 339 326 326 334 326 300 289 298 293 285 303 323 295 284 275 259 258 252 241 236 232 234 235 242 253 259 227 218 191 175 180 170 163
336 332 334 336 334 336 342 329 332 318 309 318 326 332 336 327 320 287 285 282 295 314 297 287 290 294 267 257 249 236 233 226 228 235 242 250 251 220 205 193 185 175 167 147
337 339 337 338 335 344 329 316 317 329 331 327 336 338 334 313 311 314 280 281 286 306 327 346 316 297 268 249 241 231 228 227 226 232 234 232 229 217 202 177 181 173 161 147
343 337 334 333 330 330 319 335 339 337 332 327 337 340 325 296 303 301 279 282 289 294 334 1 316 345 263 239 232 226 224 220 217 226 222 220 216 209 192 182 169 158 156 144
335 335 333 320 341 332 319 327 335 337 341 341 340 341 328 294 280 280 281 283 286 296 13 25 356 85 247 229 221 219 219 214 215 216 210 209 198 194 188 185 183 159 156 149
331 337 343 337 336 299 335 337 337 335 341 332 341 346 314 290 281 287 275 280 286 310 17 72 100 114 175 205 203 210 210 207 210 205 202 197 188 182 170 189 199 183 166 143
356 349 331 304 285 311 312 331 329 324 317 320 346 337 307 284 279 266 265 268 275 287 274 167 145 152 214 201 209 207 203 205 202 197 197 183 179 176 173 164 177 175 153 140